N430BM KROW-KELP

Flight info

Callsign N430BM
Flight time 0h 44m
Altitude 1600
Route KROW CME V280 ELP KELP
Aircraft KA20/L-V/N

Departure

Time 2026-04-26 04:47
Airport Roswell Air Center Airport (KROW)

Arrival

Time 2026-04-26 05:31
Airport El Paso International Airport (KELP)
Time Latitude Longitude Altitude Speed Heading
2026-04-26 04:29 33.30527 -104.52136 3647 ft 0 kts 269°
2026-04-26 04:37 33.30527 -104.52137 3647 ft 0 kts 269°
2026-04-26 04:38 33.30518 -104.52159 3641 ft 8 kts 230°
2026-04-26 04:38 33.30451 -104.52186 3649 ft 12 kts 143°
2026-04-26 04:38 33.30454 -104.52045 3647 ft 24 kts 82°
2026-04-26 04:39 33.30476 -104.51824 3637 ft 30 kts 38°
2026-04-26 04:39 33.30641 -104.51635 3633 ft 37 kts 41°
2026-04-26 04:39 33.30813 -104.51433 3634 ft 33 kts 44°
2026-04-26 04:39 33.30979 -104.51234 3631 ft 36 kts 45°
2026-04-26 04:40 33.31165 -104.51031 3627 ft 35 kts 39°
2026-04-26 04:40 33.31284 -104.50883 3625 ft 9 kts 107°
2026-04-26 04:40 33.31239 -104.50823 3622 ft 12 kts 137°
2026-04-26 04:40 33.31234 -104.50817 3623 ft 0 kts 137°
2026-04-26 04:44 33.31170 -104.50745 3627 ft 7 kts 137°
2026-04-26 04:45 33.31162 -104.50737 3627 ft 0 kts 139°
2026-04-26 04:45 33.31144 -104.50719 3627 ft 8 kts 145°
2026-04-26 04:45 33.31066 -104.50739 3628 ft 17 kts 224°
2026-04-26 04:45 33.30943 -104.50891 3631 ft 40 kts 225°
2026-04-26 04:46 33.30626 -104.51270 3632 ft 89 kts 222°
2026-04-26 04:46 33.30299 -104.51673 3639 ft 114 kts 225°
2026-04-26 04:46 33.29667 -104.52397 3778 ft 132 kts 225°
2026-04-26 04:46 33.29001 -104.53192 4227 ft 134 kts 227°
2026-04-26 04:47 33.28352 -104.53934 4679 ft 131 kts 228°
2026-04-26 04:47 33.27601 -104.55038 5282 ft 124 kts 236°
2026-04-26 04:47 33.27064 -104.55838 5769 ft 118 kts 232°
2026-04-26 04:47 33.26558 -104.56500 6405 ft 98 kts 230°
2026-04-26 04:48 33.25722 -104.57361 6934 ft 111 kts 224°
2026-04-26 04:48 33.25106 -104.57921 7377 ft 108 kts 219°
2026-04-26 04:48 33.24677 -104.58582 7729 ft 110 kts 245°
2026-04-26 04:49 33.24338 -104.59519 7954 ft 134 kts 249°
2026-04-26 04:49 33.23989 -104.60623 8289 ft 141 kts 265°
2026-04-26 04:49 33.24237 -104.61741 8825 ft 151 kts 296°
2026-04-26 04:49 33.24816 -104.62809 9277 ft 152 kts 293°
2026-04-26 04:50 33.25321 -104.63901 9806 ft 152 kts 291°
2026-04-26 04:50 33.25852 -104.65117 9868 ft 177 kts 292°
2026-04-26 04:50 33.26400 -104.66430 10121 ft 180 kts 288°
2026-04-26 04:50 33.26278 -104.67829 10431 ft 179 kts 233°
2026-04-26 04:51 33.25215 -104.68640 10778 ft 184 kts 212°
2026-04-26 04:51 33.24037 -104.69263 11042 ft 192 kts 210°
2026-04-26 04:51 33.22904 -104.70170 11200 ft 181 kts 237°
2026-04-26 04:51 33.22347 -104.71226 12478 ft 128 kts 241°
2026-04-26 04:52 33.21888 -104.72037 13258 ft 111 kts 232°
2026-04-26 04:52 33.21238 -104.72658 13440 ft 139 kts 218°
2026-04-26 04:52 33.20348 -104.73191 13785 ft 148 kts 213°
2026-04-26 04:52 33.19395 -104.73732 14101 ft 154 kts 220°
2026-04-26 04:53 33.18536 -104.74491 14519 ft 153 kts 220°
2026-04-26 04:53 33.17637 -104.75223 14836 ft 162 kts 221°
2026-04-26 04:53 33.16687 -104.75981 15217 ft 164 kts 221°
2026-04-26 04:53 33.15805 -104.76806 15674 ft 160 kts 224°
2026-04-26 04:54 33.14846 -104.77551 15882 ft 175 kts 219°
2026-04-26 04:54 33.14017 -104.78597 15953 ft 180 kts 236°
2026-04-26 04:54 33.13114 -104.79712 15903 ft 194 kts 225°
2026-04-26 04:54 33.12001 -104.80720 15830 ft 209 kts 220°
2026-04-26 04:55 33.10771 -104.81740 15761 ft 220 kts 220°
2026-04-26 04:55 33.09503 -104.82801 15745 ft 225 kts 220°
2026-04-26 04:55 33.08217 -104.83894 15733 ft 229 kts 220°
2026-04-26 04:55 33.06917 -104.85002 15724 ft 231 kts 220°
2026-04-26 04:56 33.05606 -104.86115 15709 ft 232 kts 220°
2026-04-26 04:56 33.04290 -104.87232 15715 ft 232 kts 220°
2026-04-26 04:56 33.02973 -104.88349 15718 ft 233 kts 220°
2026-04-26 04:56 33.01672 -104.89452 15720 ft 233 kts 220°
2026-04-26 04:57 33.00353 -104.90571 15719 ft 233 kts 220°
2026-04-26 04:57 32.99033 -104.91690 15725 ft 233 kts 220°
2026-04-26 04:57 32.97710 -104.92811 15728 ft 233 kts 220°
2026-04-26 04:57 32.96388 -104.93931 15732 ft 233 kts 221°
2026-04-26 04:58 32.95067 -104.95049 15731 ft 233 kts 221°
2026-04-26 04:58 32.93748 -104.96166 15731 ft 233 kts 220°
2026-04-26 04:58 32.92427 -104.97283 15731 ft 233 kts 220°
2026-04-26 04:58 32.91107 -104.98399 15731 ft 233 kts 220°
2026-04-26 04:59 32.89805 -104.99500 15731 ft 233 kts 220°
2026-04-26 04:59 32.88484 -105.00616 15729 ft 233 kts 221°
2026-04-26 04:59 32.87163 -105.01733 15735 ft 233 kts 221°
2026-04-26 04:59 32.85842 -105.02849 15735 ft 233 kts 220°
2026-04-26 05:00 32.84522 -105.03963 15753 ft 232 kts 221°
2026-04-26 05:00 32.83214 -105.05067 15797 ft 231 kts 220°
2026-04-26 05:00 32.81902 -105.06174 15797 ft 231 kts 220°
2026-04-26 05:00 32.80589 -105.07281 15796 ft 232 kts 221°
2026-04-26 05:01 32.79291 -105.08376 15807 ft 232 kts 221°
2026-04-26 05:01 32.77972 -105.09486 15807 ft 232 kts 220°
2026-04-26 05:01 32.76656 -105.10595 15809 ft 232 kts 220°
2026-04-26 05:01 32.75342 -105.11699 15809 ft 231 kts 221°
2026-04-26 05:02 32.74021 -105.12779 15816 ft 229 kts 221°
2026-04-26 05:02 32.72732 -105.13884 15816 ft 228 kts 222°
2026-04-26 05:02 32.71446 -105.14984 15814 ft 227 kts 221°
2026-04-26 05:02 32.70158 -105.16065 15819 ft 227 kts 221°
2026-04-26 05:03 32.68869 -105.17146 15816 ft 227 kts 221°
2026-04-26 05:03 32.67582 -105.18228 15814 ft 227 kts 221°
2026-04-26 05:03 32.66294 -105.19310 15816 ft 227 kts 221°
2026-04-26 05:03 32.65005 -105.20392 15811 ft 227 kts 221°
2026-04-26 05:04 32.63734 -105.21459 15817 ft 227 kts 221°
2026-04-26 05:04 32.62446 -105.22540 15832 ft 227 kts 221°
2026-04-26 05:04 32.61154 -105.23623 15837 ft 227 kts 221°
2026-04-26 05:04 32.59862 -105.24707 15835 ft 227 kts 221°
2026-04-26 05:05 32.58573 -105.25787 15828 ft 227 kts 221°
2026-04-26 05:05 32.57282 -105.26869 15830 ft 227 kts 221°
2026-04-26 05:05 32.55991 -105.27950 15826 ft 227 kts 220°
2026-04-26 05:05 32.54703 -105.29023 15826 ft 225 kts 221°
2026-04-26 05:06 32.53427 -105.30096 15831 ft 225 kts 221°
2026-04-26 05:06 32.52188 -105.31216 15830 ft 224 kts 224°
2026-04-26 05:06 32.50993 -105.32364 15834 ft 224 kts 224°
2026-04-26 05:06 32.49776 -105.33524 15830 ft 225 kts 224°
2026-04-26 05:07 32.48559 -105.34685 15830 ft 225 kts 224°
2026-04-26 05:07 32.47342 -105.35847 15830 ft 225 kts 224°
2026-04-26 05:07 32.46127 -105.37006 15835 ft 224 kts 224°
2026-04-26 05:07 32.44913 -105.38163 15835 ft 224 kts 224°
2026-04-26 05:08 32.43700 -105.39320 15838 ft 224 kts 224°
2026-04-26 05:08 32.42489 -105.40474 15840 ft 223 kts 224°
2026-04-26 05:08 32.41292 -105.41617 15733 ft 227 kts 224°
2026-04-26 05:08 32.40077 -105.42772 15490 ft 218 kts 224°
2026-04-26 05:09 32.38927 -105.43864 15241 ft 207 kts 224°
2026-04-26 05:09 32.37829 -105.44910 14986 ft 199 kts 224°
2026-04-26 05:09 32.36771 -105.45918 14735 ft 192 kts 224°
2026-04-26 05:09 32.35743 -105.46896 14487 ft 187 kts 224°
2026-04-26 05:10 32.34740 -105.47850 14242 ft 183 kts 224°
2026-04-26 05:10 32.33756 -105.48786 14001 ft 180 kts 224°
2026-04-26 05:10 32.32786 -105.49707 13764 ft 178 kts 224°
2026-04-26 05:10 32.31830 -105.50616 13527 ft 175 kts 224°
2026-04-26 05:11 32.30885 -105.51514 13264 ft 173 kts 224°
2026-04-26 05:11 32.29960 -105.52393 13009 ft 173 kts 224°
2026-04-26 05:11 32.29025 -105.53280 12746 ft 172 kts 224°
2026-04-26 05:11 32.28094 -105.54163 12491 ft 171 kts 224°
2026-04-26 05:12 32.27168 -105.55042 12238 ft 170 kts 224°
2026-04-26 05:12 32.26246 -105.55916 11975 ft 169 kts 224°
2026-04-26 05:12 32.25331 -105.56784 11742 ft 169 kts 224°
2026-04-26 05:12 32.24416 -105.57652 11497 ft 168 kts 224°
2026-04-26 05:13 32.23504 -105.58516 11256 ft 168 kts 224°
2026-04-26 05:13 32.22601 -105.59372 11019 ft 169 kts 224°
2026-04-26 05:13 32.21686 -105.60239 10782 ft 169 kts 224°
2026-04-26 05:13 32.20725 -105.61150 10556 ft 187 kts 224°
2026-04-26 05:14 32.19674 -105.62146 10343 ft 199 kts 223°
2026-04-26 05:14 32.18566 -105.63180 10152 ft 205 kts 221°
2026-04-26 05:14 32.17424 -105.64208 9941 ft 209 kts 224°
2026-04-26 05:14 32.16310 -105.65322 9724 ft 211 kts 224°
2026-04-26 05:15 32.15181 -105.66443 9493 ft 213 kts 223°
2026-04-26 05:15 32.14034 -105.67552 9244 ft 213 kts 224°
2026-04-26 05:15 32.12900 -105.68642 9005 ft 214 kts 224°
2026-04-26 05:15 32.11756 -105.69746 8887 ft 209 kts 223°
2026-04-26 05:16 32.10643 -105.70819 8847 ft 204 kts 224°
2026-04-26 05:16 32.09558 -105.71867 8825 ft 201 kts 224°
2026-04-26 05:16 32.08464 -105.72924 8823 ft 205 kts 224°
2026-04-26 05:16 32.07352 -105.73996 8824 ft 208 kts 224°
2026-04-26 05:17 32.06229 -105.75079 8823 ft 209 kts 224°
2026-04-26 05:17 32.05101 -105.76166 8821 ft 210 kts 223°
2026-04-26 05:17 32.03969 -105.77257 8822 ft 211 kts 224°
2026-04-26 05:17 32.02833 -105.78351 8826 ft 211 kts 224°
2026-04-26 05:18 32.01697 -105.79445 8828 ft 211 kts 224°
2026-04-26 05:18 32.00578 -105.80522 8825 ft 210 kts 224°
2026-04-26 05:18 31.99445 -105.81613 8832 ft 211 kts 224°
2026-04-26 05:18 31.98308 -105.82707 8827 ft 211 kts 224°
2026-04-26 05:19 31.97172 -105.83800 8827 ft 211 kts 224°
2026-04-26 05:19 31.96038 -105.84889 8827 ft 210 kts 224°
2026-04-26 05:19 31.95009 -105.86069 8818 ft 203 kts 243°
2026-04-26 05:19 31.94813 -105.87670 8833 ft 201 kts 271°
2026-04-26 05:20 31.94914 -105.89293 8829 ft 202 kts 272°
2026-04-26 05:20 31.94987 -105.90944 8831 ft 202 kts 269°
2026-04-26 05:20 31.94987 -105.92603 8826 ft 203 kts 268°
2026-04-26 05:20 31.94968 -105.94275 8826 ft 204 kts 267°
2026-04-26 05:21 31.94954 -105.95951 8819 ft 205 kts 268°
2026-04-26 05:21 31.94943 -105.97615 8816 ft 201 kts 268°
2026-04-26 05:21 31.94932 -105.99274 8821 ft 202 kts 268°
2026-04-26 05:21 31.94925 -106.00891 8831 ft 194 kts 267°
2026-04-26 05:22 31.94913 -106.02463 8842 ft 190 kts 267°
2026-04-26 05:22 31.94902 -106.04011 8850 ft 188 kts 267°
2026-04-26 05:22 31.94891 -106.05524 8841 ft 187 kts 267°
2026-04-26 05:22 31.94620 -106.07009 8779 ft 186 kts 246°
2026-04-26 05:23 31.93830 -106.08258 8551 ft 198 kts 224°
2026-04-26 05:23 31.92598 -106.09041 8329 ft 204 kts 206°
2026-04-26 05:23 31.91259 -106.09600 8091 ft 203 kts 206°
2026-04-26 05:23 31.89968 -106.10160 7837 ft 195 kts 206°
2026-04-26 05:24 31.88684 -106.10700 7610 ft 196 kts 206°
2026-04-26 05:24 31.87397 -106.11245 7379 ft 196 kts 206°
2026-04-26 05:24 31.86115 -106.11798 7149 ft 197 kts 207°
2026-04-26 05:24 31.84828 -106.12351 6920 ft 197 kts 207°
2026-04-26 05:25 31.83576 -106.12885 6856 ft 191 kts 207°
2026-04-26 05:25 31.82345 -106.13409 6821 ft 186 kts 207°
2026-04-26 05:25 31.81149 -106.13920 6816 ft 179 kts 208°
2026-04-26 05:25 31.80081 -106.14563 6792 ft 167 kts 228°
2026-04-26 05:26 31.79387 -106.15621 6746 ft 163 kts 248°
2026-04-26 05:26 31.79104 -106.16919 6578 ft 169 kts 268°
2026-04-26 05:26 31.79170 -106.18317 6371 ft 172 kts 271°
2026-04-26 05:26 31.79245 -106.19719 6194 ft 170 kts 272°
2026-04-26 05:27 31.79310 -106.21077 6091 ft 165 kts 270°
2026-04-26 05:27 31.79363 -106.22402 5911 ft 163 kts 271°
2026-04-26 05:27 31.79426 -106.23735 5670 ft 163 kts 269°
2026-04-26 05:27 31.79477 -106.25030 5620 ft 154 kts 269°
2026-04-26 05:28 31.79531 -106.26283 5440 ft 153 kts 269°
2026-04-26 05:28 31.79613 -106.27511 5313 ft 147 kts 270°
2026-04-26 05:28 31.79678 -106.28707 5206 ft 146 kts 269°
2026-04-26 05:28 31.79722 -106.29903 5011 ft 147 kts 270°
2026-04-26 05:29 31.79776 -106.31105 4843 ft 145 kts 272°
2026-04-26 05:29 31.79839 -106.32254 4676 ft 139 kts 272°
2026-04-26 05:29 31.79902 -106.33371 4452 ft 134 kts 273°
2026-04-26 05:29 31.79966 -106.34384 4214 ft 117 kts 272°
2026-04-26 05:30 31.80034 -106.35277 4083 ft 104 kts 270°
2026-04-26 05:30 31.80069 -106.36099 3981 ft 98 kts 270°
2026-04-26 05:30 31.80111 -106.36858 3953 ft 87 kts 267°
2026-04-26 05:30 31.80127 -106.37503 3949 ft 71 kts 273°
2026-04-26 05:31 31.80099 -106.37752 3945 ft 15 kts 168°
2026-04-26 05:31 31.80038 -106.37747 3944 ft 0 kts 182°